Location: Kouchibouguac National Park
(46.7962°N, 64.9642°W)
Time: 12:25:41
(UTC-04:00)

ISS - Pass Details

Date: 28 October 2019
Orbit: 412 x 421 km, 51.6° (Epoch: 20 November)

Event Time Altitude Azimuth Distance (km) Brightness Sun altitude
Exits shadow 06:21:13 31° 221° (SW) 766 -2.8 -16.7°
Maximum altitude 06:22:37 64° 150° (SSE) 473 -3.4 -16.5°
Drops below altitude 10° 06:25:59 10° 68° (ENE) 1,509 0.1 -15.9°
Sets 06:28:11 0° 65° (ENE) 2,412 1.3 -15.5°
